User: anonymous   Login
Location: Unspecified
(0.0000°N, 0.0000°E)
Time: 19:56:56
(UTC+00:00)
Language:

TIANWANG 1A (TW-1A) - Orbit

View from above orbital plane
View from above orbital plane
View from above satellite
View from above satellite

Ground track
Ground track

The orbit data is extracted from the following two-line orbital elements,

1 40928U 15051D   17144.76574477 +.00004614 +00000-0 +13396-3 0  9999
2 40928 097.2292 181.0019 0010938 285.3648 165.3642 15.35938629093104
Epoch (UTC): 24 May 2017 18:22:40
Eccentricity: 0.0010938
inclination: 97.2292°
perigee height: 450 km
apogee height: 465 km
right ascension of ascending node: 181.0019°
argument of perigee: 285.3648°
revolutions per day: 15.35938629
mean anomaly at epoch: 165.3642°
orbit number at epoch: 9310

The dashed part of the orbit path shows where the satellite is in the earth's shadow,  

DLR